This is the latest recevied weather packets stored in our database for station/object KC3JUG-3. If no packets are shown the sender has not sent any weather packets the latest 10 day(s).
| Time | Temp. | Humidity | Pressure | Rain* | Wind** | Luminosity | Snow |
|---|---|---|---|---|---|---|---|
| 1777608646 | 7.78° C | 79% | 1014.2 hPa | 0 mm | - | - | - |
| 1777606292 | 8.89° C | 77% | 1014.1 hPa | 0 mm | - | - | - |
| 1777605947 | 8.89° C | 77% | 1014 hPa | 0 mm | - | - | - |
| 1777605051 | 8.89° C | 76% | 1014 hPa | 0 mm | - | - | - |
| 1777604746 | 8.89° C | 77% | 1014 hPa | 0 mm | - | - | - |
| 1777604146 | 8.89° C | 77% | 1014 hPa | 0 mm | - | - | - |
| 1777603247 | 9.44° C | 77% | 1014.1 hPa | 0 mm | - | - | - |
| 1777601147 | 9.44° C | 76% | 1013.9 hPa | 0 mm | - | - | - |
| 1777600547 | 9.44° C | 77% | 1013.8 hPa | 0 mm | - | - | - |
| 1777599952 | 9.44° C | 77% | 1013.8 hPa | 0 mm | - | - | - |
| 1777597847 | 10° C | 77% | 1013.1 hPa | 0 mm | - | - | - |
| 1777596947 | 10.56° C | 80% | 1013 hPa | 0 mm | - | - | - |
| 1777596356 | 10.56° C | 79% | 1012.8 hPa | 0 mm | - | - | - |
| 1777595466 | 10.56° C | 79% | 1012.6 hPa | 0 mm | - | - | - |
| 1777591546 | 11.67° C | 75% | 1011.4 hPa | 0 mm | - | - | - |
| 1777591246 | 11.67° C | 74% | 1011.4 hPa | 0 mm | - | - | - |
| 1777590974 | 11.67° C | 73% | 1011.4 hPa | 0 mm | - | - | - |
| 1777590645 | 12.22° C | 73% | 1011.4 hPa | 0 mm | - | - | - |
| 1777589745 | 12.78° C | 73% | 1011.1 hPa | 0 mm | - | - | - |
| 1777587646 | 12.78° C | 73% | 1010.8 hPa | 0 mm | - | - | - |
| 1777587353 | 13.33° C | 73% | 1010.8 hPa | 0 mm | - | - | - |
| 1777586745 | 13.33° C | 74% | 1010.7 hPa | 0 mm | - | - | - |
| 1777583147 | 15.56° C | 61% | 1009.3 hPa | 0 mm | - | - | - |
| 1777582860 | 15.56° C | 63% | 1009.2 hPa | 0 mm | - | - | - |
| 1777582246 | 15.56° C | 63% | 1009 hPa | 0 mm | - | - | - |
* Rain latest hour (hover to see other rain measurements)
** Current wind speed in m/s (hover to see current wind gust speed)